Hourly Weather Rudno

Today, 22 April, Thursday

Time Temperature Precipitation Wind Pressure Humidity
00:00 +8°C° 0 mm 3 mps 750 mmHg 84%
01:00 +7°C° 0 mm 2 mps 750 mmHg 92%
02:00 +5°C° 1.2 mm 3 mps 750 mmHg 90%
03:00 +5°C° 1.2 mm 5 mps 751 mmHg 88%
04:00 +4°C° 1.2 mm 6 mps 751 mmHg 86%
05:00 +3°C° 0 mm 6 mps 751 mmHg 84%
06:00 +2°C° 0 mm 6 mps 752 mmHg 82%
07:00 +2°C° 0 mm 6 mps 752 mmHg 80%
08:00 +3°C° 0 mm 7 mps 753 mmHg 73%
09:00 +4°C° 0 mm 7 mps 753 mmHg 67%
10:00 +5°C° 0 mm 7 mps 753 mmHg 60%
11:00 +5°C° 0 mm 7 mps 754 mmHg 60%
12:00 +5°C° 0 mm 7 mps 754 mmHg 59%
13:00 +5°C° 0 mm 7 mps 754 mmHg 59%
14:00 +5°C° 0 mm 7 mps 754 mmHg 58%
15:00 +6°C° 0 mm 7 mps 754 mmHg 58%
16:00 +6°C° 0 mm 7 mps 753 mmHg 58%
17:00 +6°C° 0.2 mm 5 mps 753 mmHg 64%
18:00 +5°C° 0.2 mm 4 mps 754 mmHg 70%
19:00 +4°C° 0.2 mm 3 mps 754 mmHg 76%
20:00 +4°C° 0.1 mm 4 mps 754 mmHg 80%
21:00 +3°C° 0.1 mm 4 mps 754 mmHg 84%
22:00 +1°C° 0.1 mm 4 mps 755 mmHg 87%
23:00 +1°C° 0.1 mm 4 mps 755 mmHg 89%

Tomorrow, 23 April, Friday

Time Temperature Precipitation Wind Pressure Humidity
00:00 +1°C° 0.1 mm 4 mps 755 mmHg 91%
01:00 +1°C° 0.1 mm 4 mps 755 mmHg 93%
02:00 +1°C° 0 mm 4 mps 755 mmHg 94%
03:00 0°C° 0 mm 4 mps 755 mmHg 95%
04:00 0°C° 0 mm 5 mps 756 mmHg 95%
05:00 +1°C° 0 mm 5 mps 756 mmHg 93%
06:00 +1°C° 0 mm 5 mps 756 mmHg 91%
07:00 +1°C° 0 mm 6 mps 757 mmHg 89%
08:00 +2°C° 0 mm 6 mps 757 mmHg 87%
09:00 +2°C° 0 mm 6 mps 757 mmHg 85%
10:00 +2°C° 0 mm 6 mps 757 mmHg 82%
11:00 +3°C° 0 mm 6 mps 757 mmHg 79%
12:00 +3°C° 0 mm 7 mps 757 mmHg 76%
13:00 +4°C° 0 mm 7 mps 757 mmHg 73%
14:00 +5°C° 0 mm 6 mps 757 mmHg 66%
15:00 +7°C° 0 mm 6 mps 757 mmHg 59%
16:00 +9°C° 0 mm 6 mps 757 mmHg 53%
17:00 +7°C° 0.1 mm 5 mps 757 mmHg 55%
18:00 +6°C° 0.1 mm 4 mps 757 mmHg 56%
19:00 +5°C° 0.1 mm 3 mps 758 mmHg 58%
20:00 +5°C° 0 mm 2 mps 758 mmHg 57%
21:00 +4°C° 0 mm 2 mps 758 mmHg 56%
22:00 +4°C° 0 mm 1 mps 758 mmHg 56%
23:00 +4°C° 0 mm 1 mps 758 mmHg 56%

Day after tomorrow, 24 April, Saturday

Time Temperature Precipitation Wind Pressure Humidity
00:00 +4°C° 0 mm 1 mps 758 mmHg 57%
01:00 +3°C° 0 mm 2 mps 758 mmHg 58%
02:00 +2°C° 0 mm 2 mps 758 mmHg 63%
03:00 +2°C° 0 mm 2 mps 758 mmHg 67%
04:00 +1°C° 0 mm 2 mps 758 mmHg 72%
05:00 +3°C° 0 mm 2 mps 758 mmHg 71%
06:00 +3°C° 0 mm 3 mps 758 mmHg 70%
07:00 +4°C° 0 mm 3 mps 758 mmHg 69%
08:00 +5°C° 0 mm 4 mps 758 mmHg 67%
09:00 +7°C° 0 mm 4 mps 758 mmHg 65%
10:00 +8°C° 0 mm 5 mps 758 mmHg 63%
11:00 +8°C° 0 mm 5 mps 757 mmHg 60%
12:00 +9°C° 0 mm 5 mps 757 mmHg 57%
13:00 +10°C° 0 mm 4 mps 757 mmHg 53%
14:00 +10°C° 0 mm 4 mps 757 mmHg 54%
15:00 +10°C° 0 mm 4 mps 756 mmHg 55%
16:00 +11°C° 0 mm 4 mps 756 mmHg 55%
17:00 +9°C° 0 mm 3 mps 756 mmHg 60%
18:00 +8°C° 0 mm 2 mps 756 mmHg 65%
19:00 +7°C° 0 mm 2 mps 756 mmHg 70%
20:00 +6°C° 0 mm 2 mps 756 mmHg 72%
21:00 +5°C° 0 mm 2 mps 757 mmHg 75%
22:00 +4°C° 0 mm 2 mps 757 mmHg 78%
23:00 +4°C° 0 mm 2 mps 757 mmHg 81%

25 April, Sunday

Time Temperature Precipitation Wind Pressure Humidity
00:00 +3°C° 0 mm 2 mps 757 mmHg 84%
01:00 +2°C° 0 mm 2 mps 757 mmHg 87%
02:00 +1°C° 0 mm 2 mps 757 mmHg 88%
03:00 -1°C° 0 mm 2 mps 757 mmHg 89%
04:00 -1°C° 0 mm 2 mps 758 mmHg 90%
05:00 0°C° 0 mm 3 mps 758 mmHg 80%
06:00 +1°C° 0 mm 3 mps 758 mmHg 71%
07:00 +1°C° 0 mm 4 mps 758 mmHg 62%
08:00 +4°C° 0 mm 4 mps 758 mmHg 56%
09:00 +5°C° 0 mm 4 mps 758 mmHg 50%
10:00 +7°C° 0 mm 4 mps 758 mmHg 44%
11:00 +8°C° 0 mm 4 mps 758 mmHg 42%
12:00 +8°C° 0 mm 4 mps 758 mmHg 39%
13:00 +10°C° 0 mm 4 mps 757 mmHg 37%
14:00 +10°C° 0 mm 4 mps 757 mmHg 38%
15:00 +10°C° 0 mm 4 mps 757 mmHg 38%
16:00 +9°C° 0 mm 5 mps 756 mmHg 39%
17:00 +8°C° 0 mm 4 mps 756 mmHg 46%
18:00 +7°C° 0 mm 3 mps 756 mmHg 53%
19:00 +6°C° 0 mm 2 mps 756 mmHg 60%
20:00 +6°C° 0 mm 1 mps 756 mmHg 62%
21:00 +5°C° 0 mm 1 mps 756 mmHg 65%
22:00 +4°C° 0 mm 1 mps 756 mmHg 67%
23:00 +4°C° 0 mm 1 mps 756 mmHg 68%

26 April, Monday

Time Temperature Precipitation Wind Pressure Humidity
00:00 +3°C° 0 mm 1 mps 756 mmHg 69%
01:00 +2°C° 0 mm 2 mps 756 mmHg 70%
02:00 +1°C° 0 mm 2 mps 756 mmHg 72%
03:00 +1°C° 0 mm 2 mps 755 mmHg 73%
04:00 +1°C° 0 mm 2 mps 755 mmHg 74%
05:00 +2°C° 0 mm 2 mps 755 mmHg 70%
06:00 +3°C° 0 mm 3 mps 755 mmHg 66%
07:00 +4°C° 0 mm 3 mps 755 mmHg 62%
08:00 +5°C° 0 mm 3 mps 755 mmHg 59%
09:00 +8°C° 0 mm 3 mps 755 mmHg 56%
10:00 +9°C° 0 mm 3 mps 755 mmHg 52%
11:00 +10°C° 0 mm 3 mps 754 mmHg 49%
12:00 +11°C° 0 mm 3 mps 754 mmHg 45%
13:00 +12°C° 0 mm 3 mps 753 mmHg 42%
14:00 +12°C° 0 mm 3 mps 753 mmHg 41%
15:00 +12°C° 0 mm 3 mps 753 mmHg 41%
16:00 +12°C° 0 mm 3 mps 753 mmHg 40%
17:00 +10°C° 0 mm 3 mps 752 mmHg 46%
18:00 +8°C° 0 mm 3 mps 752 mmHg 52%
19:00 +5°C° 0 mm 3 mps 752 mmHg 58%
20:00 +6°C° 0 mm 2 mps 752 mmHg 58%
21:00 +5°C° 0 mm 2 mps 752 mmHg 58%
22:00 +4°C° 0 mm 2 mps 752 mmHg 58%
23:00 +3°C° 0 mm 2 mps 752 mmHg 60%

27 April, Tuesday

Time Temperature Precipitation Wind Pressure Humidity
00:00 +3°C° 0 mm 2 mps 752 mmHg 63%
01:00 +2°C° 0 mm 2 mps 752 mmHg 65%
02:00 +2°C° 0 mm 2 mps 751 mmHg 67%
03:00 +2°C° 0 mm 2 mps 751 mmHg 68%
04:00 +1°C° 0 mm 3 mps 750 mmHg 70%
05:00 +2°C° 0 mm 3 mps 750 mmHg 67%
06:00 +3°C° 0 mm 3 mps 750 mmHg 65%
07:00 +4°C° 0 mm 4 mps 750 mmHg 62%
08:00 +6°C° 0 mm 4 mps 750 mmHg 58%
09:00 +8°C° 0 mm 5 mps 749 mmHg 54%
10:00 +9°C° 0 mm 5 mps 749 mmHg 50%
11:00 +10°C° 0 mm 5 mps 748 mmHg 49%
12:00 +11°C° 0 mm 6 mps 748 mmHg 48%
13:00 +11°C° 0 mm 6 mps 747 mmHg 47%
14:00 +13°C° 0 mm 5 mps 747 mmHg 49%
15:00 +13°C° 0 mm 5 mps 746 mmHg 52%
16:00 +13°C° 0 mm 5 mps 746 mmHg 54%
17:00 +12°C° 0 mm 4 mps 745 mmHg 58%
18:00 +11°C° 0 mm 4 mps 745 mmHg 61%
19:00 +10°C° 0 mm 4 mps 745 mmHg 65%
20:00 +8°C° 0 mm 4 mps 745 mmHg 66%
21:00 +8°C° 0 mm 4 mps 744 mmHg 68%
22:00 +8°C° 0 mm 4 mps 744 mmHg 69%
23:00 +8°C° 0 mm 4 mps 743 mmHg 70%
Show more